• en Suisse
  • Liste des pays
  • À 7 jours
  • Température de l'eau
  • Carte satellitaire
  • Carte météo
  • Widgets météo
  • user-avatar
    Se connecter

    Météo par heure à Serednyaky

    Ce jour, 18 Juillet, Mercredi

    Heure Température Précipitation Vent Pression Humidité
    00:00 +18°C° 0,3 mm 2 m/s 736 mmHg 95%
    01:00 +18°C° 0,3 mm 2 m/s 736 mmHg 95%
    02:00 +18°C° 0 mm 2 m/s 736 mmHg 93%
    03:00 +18°C° 0,9 mm 2 m/s 736 mmHg 94%
    04:00 +18°C° 0,9 mm 2 m/s 736 mmHg 95%
    05:00 +18°C° 0,9 mm 2 m/s 736 mmHg 96%
    06:00 +18°C° 1,4 mm 2 m/s 736 mmHg 95%
    07:00 +19°C° 1,4 mm 2 m/s 736 mmHg 95%
    08:00 +19°C° 0 mm 2 m/s 736 mmHg 94%
    09:00 +20°C° 0,8 mm 2 m/s 736 mmHg 91%
    10:00 +21°C° 0,8 mm 2 m/s 736 mmHg 88%
    11:00 +23°C° 0,8 mm 2 m/s 736 mmHg 86%
    12:00 +22°C° 0,7 mm 3 m/s 736 mmHg 83%
    13:00 +24°C° 0,7 mm 3 m/s 736 mmHg 81%
    14:00 +24°C° 0 mm 3 m/s 736 mmHg 81%
    15:00 +24°C° 0,8 mm 2 m/s 736 mmHg 82%
    16:00 +24°C° 0,8 mm 2 m/s 736 mmHg 83%
    17:00 +24°C° 0,8 mm 2 m/s 736 mmHg 84%
    18:00 +23°C° 0,8 mm 2 m/s 736 mmHg 87%
    19:00 +21°C° 0,8 mm 2 m/s 736 mmHg 90%
    20:00 +20°C° 0,8 mm 2 m/s 736 mmHg 93%
    21:00 +20°C° 0,6 mm 2 m/s 736 mmHg 94%
    22:00 +19°C° 0,6 mm 2 m/s 736 mmHg 95%
    23:00 +19°C° 0,6 mm 2 m/s 736 mmHg 96%

    Demain, 19 Juillet, Jeudi

    Heure Température Précipitation Vent Pression Humidité
    00:00 +19°C° 0 mm 2 m/s 736 mmHg 96%
    01:00 +18°C° 0 mm 2 m/s 736 mmHg 97%
    02:00 +19°C° 0 mm 1 m/s 736 mmHg 97%
    03:00 +19°C° 0 mm 1 m/s 736 mmHg 97%
    04:00 +19°C° 0 mm 1 m/s 736 mmHg 97%
    05:00 +19°C° 0 mm 1 m/s 737 mmHg 97%
    06:00 +20°C° 0,1 mm 1 m/s 737 mmHg 94%
    07:00 +21°C° 0,1 mm 1 m/s 737 mmHg 91%
    08:00 +23°C° 0,1 mm 1 m/s 737 mmHg 88%
    09:00 +24°C° 0,5 mm 2 m/s 737 mmHg 84%
    10:00 +25°C° 0,5 mm 2 m/s 737 mmHg 81%
    11:00 +26°C° 0,5 mm 2 m/s 737 mmHg 77%
    12:00 +26°C° 1,3 mm 2 m/s 737 mmHg 74%
    13:00 +27°C° 1,3 mm 2 m/s 737 mmHg 72%
    14:00 +28°C° 1,3 mm 3 m/s 737 mmHg 69%
    15:00 +28°C° 1,3 mm 2 m/s 737 mmHg 71%
    16:00 +27°C° 1,3 mm 2 m/s 737 mmHg 72%
    17:00 +27°C° 1,3 mm 2 m/s 737 mmHg 74%
    18:00 +26°C° 0,4 mm 2 m/s 737 mmHg 78%
    19:00 +25°C° 0,4 mm 2 m/s 737 mmHg 82%
    20:00 +23°C° 0,4 mm 2 m/s 737 mmHg 86%
    21:00 +23°C° 0,2 mm 2 m/s 737 mmHg 88%
    22:00 +21°C° 0,2 mm 2 m/s 737 mmHg 89%
    23:00 +20°C° 0,2 mm 2 m/s 737 mmHg 91%

    Après-demain, 20 Juillet, Vendredi

    Heure Température Précipitation Vent Pression Humidité
    00:00 +20°C° 0 mm 2 m/s 737 mmHg 92%
    01:00 +20°C° 0 mm 2 m/s 737 mmHg 92%
    02:00 +19°C° 0 mm 2 m/s 737 mmHg 93%
    03:00 +19°C° 0 mm 2 m/s 737 mmHg 94%
    04:00 +19°C° 0 mm 2 m/s 737 mmHg 94%
    05:00 +19°C° 0 mm 2 m/s 737 mmHg 95%
    06:00 +20°C° 0 mm 2 m/s 737 mmHg 91%
    07:00 +23°C° 0 mm 2 m/s 737 mmHg 87%
    08:00 +24°C° 0 mm 2 m/s 738 mmHg 83%
    09:00 +25°C° 0 mm 3 m/s 738 mmHg 78%
    10:00 +26°C° 0 mm 3 m/s 738 mmHg 73%
    11:00 +27°C° 0 mm 3 m/s 738 mmHg 69%
    12:00 +28°C° 0,1 mm 3 m/s 738 mmHg 68%
    13:00 +28°C° 0,1 mm 3 m/s 738 mmHg 67%
    14:00 +28°C° 0,1 mm 3 m/s 738 mmHg 65%
    15:00 +28°C° 0,7 mm 3 m/s 738 mmHg 69%
    16:00 +27°C° 0,7 mm 3 m/s 738 mmHg 72%
    17:00 +27°C° 0,7 mm 3 m/s 738 mmHg 75%
    18:00 +26°C° 0,1 mm 3 m/s 738 mmHg 80%
    19:00 +24°C° 0,1 mm 2 m/s 738 mmHg 84%
    20:00 +23°C° 0,1 mm 2 m/s 738 mmHg 89%
    21:00 +21°C° 0 mm 2 m/s 738 mmHg 90%
    22:00 +21°C° 0 mm 2 m/s 738 mmHg 91%
    23:00 +20°C° 0 mm 2 m/s 738 mmHg 93%

    21 Juillet, Samedi

    Heure Température Précipitation Vent Pression Humidité
    00:00 +20°C° 0 mm 2 m/s 739 mmHg 93%
    01:00 +20°C° 0 mm 2 m/s 739 mmHg 94%
    02:00 +19°C° 0 mm 2 m/s 739 mmHg 94%
    03:00 +19°C° 0 mm 2 m/s 739 mmHg 94%
    04:00 +20°C° 0 mm 1 m/s 739 mmHg 95%
    05:00 +20°C° 0 mm 1 m/s 739 mmHg 95%
    06:00 +21°C° 0 mm 2 m/s 739 mmHg 90%
    07:00 +23°C° 0 mm 2 m/s 739 mmHg 85%
    08:00 +25°C° 0 mm 2 m/s 740 mmHg 80%
    09:00 +26°C° 0,5 mm 3 m/s 740 mmHg 76%
    10:00 +27°C° 0,5 mm 3 m/s 740 mmHg 72%
    11:00 +28°C° 0,5 mm 3 m/s 740 mmHg 68%
    12:00 +28°C° 0,7 mm 3 m/s 740 mmHg 68%
    13:00 +28°C° 0,7 mm 4 m/s 740 mmHg 67%
    14:00 +28°C° 0,7 mm 4 m/s 740 mmHg 67%
    15:00 +28°C° 0,1 mm 3 m/s 740 mmHg 67%
    16:00 +28°C° 0,1 mm 3 m/s 740 mmHg 68%
    17:00 +28°C° 0,1 mm 3 m/s 739 mmHg 69%
    18:00 +26°C° 0,3 mm 2 m/s 740 mmHg 74%
    19:00 +25°C° 0,3 mm 2 m/s 740 mmHg 80%
    20:00 +24°C° 0,3 mm 2 m/s 740 mmHg 85%
    21:00 +23°C° 0 mm 2 m/s 740 mmHg 88%
    22:00 +21°C° 0 mm 2 m/s 740 mmHg 90%
    23:00 +21°C° 0 mm 2 m/s 740 mmHg 93%

    22 Juillet, Dimanche

    Heure Température Précipitation Vent Pression Humidité
    00:00 +20°C° 0 mm 2 m/s 740 mmHg 94%
    01:00 +20°C° 0 mm 2 m/s 740 mmHg 95%
    02:00 +20°C° 0 mm 2 m/s 740 mmHg 96%
    03:00 +19°C° 0 mm 2 m/s 740 mmHg 96%
    04:00 +19°C° 0 mm 2 m/s 740 mmHg 96%
    05:00 +19°C° 0 mm 2 m/s 740 mmHg 96%
    06:00 +21°C° 0 mm 2 m/s 740 mmHg 91%
    07:00 +23°C° 0 mm 2 m/s 740 mmHg 86%
    08:00 +24°C° 0 mm 2 m/s 740 mmHg 81%
    09:00 +25°C° 0,1 mm 3 m/s 740 mmHg 77%
    10:00 +26°C° 0,1 mm 3 m/s 740 mmHg 73%
    11:00 +27°C° 0,1 mm 3 m/s 740 mmHg 69%
    12:00 +28°C° 0,8 mm 4 m/s 740 mmHg 68%
    13:00 +28°C° 0,8 mm 4 m/s 740 mmHg 68%
    14:00 +28°C° 0,8 mm 4 m/s 740 mmHg 67%
    15:00 +28°C° 0,7 mm 4 m/s 740 mmHg 69%
    16:00 +28°C° 0,7 mm 3 m/s 740 mmHg 71%
    17:00 +27°C° 0,7 mm 3 m/s 739 mmHg 73%
    18:00 +26°C° 0,3 mm 3 m/s 740 mmHg 78%
    19:00 +25°C° 0,3 mm 3 m/s 740 mmHg 82%
    20:00 +23°C° 0,3 mm 2 m/s 740 mmHg 87%
    21:00 +23°C° 0 mm 2 m/s 740 mmHg 89%
    22:00 +21°C° 0 mm 2 m/s 740 mmHg 90%
    23:00 +21°C° 0 mm 2 m/s 740 mmHg 92%

    23 Juillet, Lundi

    Heure Température Précipitation Vent Pression Humidité
    00:00 +20°C° 0 mm 2 m/s 740 mmHg 93%
    01:00 +20°C° 0 mm 2 m/s 740 mmHg 93%
    02:00 +20°C° 0 mm 2 m/s 740 mmHg 94%
    03:00 +20°C° 0 mm 2 m/s 740 mmHg 95%
    04:00 +20°C° 0 mm 2 m/s 740 mmHg 95%
    05:00 +20°C° 0 mm 2 m/s 740 mmHg 96%
    06:00 +21°C° 0 mm 2 m/s 740 mmHg 91%
    07:00 +22°C° 0 mm 3 m/s 740 mmHg 87%
    08:00 +25°C° 0 mm 3 m/s 740 mmHg 82%
    09:00 +26°C° 0,1 mm 3 m/s 740 mmHg 78%
    10:00 +27°C° 0,1 mm 3 m/s 740 mmHg 74%
    11:00 +28°C° 0,1 mm 4 m/s 740 mmHg 69%
    12:00 +28°C° 0,3 mm 4 m/s 740 mmHg 69%
    13:00 +28°C° 0,3 mm 4 m/s 740 mmHg 68%
    14:00 +29°C° 0,3 mm 4 m/s 740 mmHg 67%
    15:00 +28°C° 0,4 mm 4 m/s 740 mmHg 69%
    16:00 +28°C° 0,4 mm 3 m/s 740 mmHg 71%
    17:00 +28°C° 0,4 mm 3 m/s 740 mmHg 73%
    18:00 +26°C° 0,1 mm 3 m/s 741 mmHg 78%
    19:00 +25°C° 0,1 mm 2 m/s 741 mmHg 83%
    20:00 +24°C° 0,1 mm 2 m/s 741 mmHg 88%
    21:00 +23°C° 0 mm 2 m/s 741 mmHg 90%
    22:00 +21°C° 0 mm 2 m/s 741 mmHg 92%
    23:00 +21°C° 0 mm 2 m/s 741 mmHg 94%
    Voir plus